20050704,000003,444709,30.849300,-121.593611,17.5,18.520,33.119,44.187,865.34,0.0,0.557,18.191,18.153, NaN,23.704,   NaN,17.19,1014.62,87.41,17.46,35.6,35.6,5.8,5.8,3.9,4.0,5.7,5.7,NaN, NaN,21.2,356.4,350.6,1120435204,1120435204,1,0.6,000003,000004,323.8,30.849166,-121.593555,0.69,NaN,NaN,18.524, NaN,NaN,NaN, NaN, NaN
20050704,000034,444739,30.849348,-121.593690,17.7,18.524,33.118,44.190,854.84,0.0,0.576,18.192,18.158, NaN,23.702,   NaN,17.18,1014.66,87.25,17.49,35.7,35.7,6.4,6.5,2.8,2.8,6.3,6.4,NaN, NaN,21.4,331.9,358.4,1120435235,1120435235,1,0.7,000034,000035,322.5,30.849221,-121.593643,0.72,NaN,NaN,18.528, NaN,NaN,NaN, NaN, NaN
20050704,000103,444769,30.849393,-121.593795,17.6,18.522,33.124,44.195,848.32,0.0,0.576,18.193,18.156, NaN,23.707,   NaN,17.09,1014.64,87.17,17.43,34.4,32.6,6.3,6.6,1.4,359.4,6.2,6.6,NaN, NaN,21.2,337.6,287.5,1120435265,1120435264,1,0.5,000063,000064,323.8,30.849265,-121.593746,0.96,NaN,NaN,18.526, NaN,NaN,NaN, NaN, NaN
20050704,000134,444800,30.849456,-121.593905,17.4,18.518,33.126,44.193,842.66,0.0,0.576,18.192,18.158, NaN,23.710,   NaN,17.14,1014.68,87.55,17.41,34.4,31.4,5.6,6.2,1.4,358.3,5.5,6.1,NaN, NaN,20.3,260.9,281.2,1120435295,1120435295,1,1.0,000094,000095,325.5,30.849321,-121.593853,0.77,NaN,NaN,18.522, NaN,NaN,NaN, NaN, NaN
20050704,000204,444830,30.849535,-121.593976,17.6,18.518,33.125,44.192,841.33,0.0,0.576,18.192,18.157, NaN,23.709,   NaN,17.15,1014.67,87.39,17.47,28.5,28.1,5.9,6.3,358.0,357.6,5.7,6.2,NaN, NaN,20.7,1.1,339.7,1120435325,1120435324,1,0.6,000123,000124,330.0,30.849390,-121.593941,0.78,NaN,NaN,18.522, NaN,NaN,NaN, NaN, NaN
20050704,000234,444860,30.849611,-121.594060,17.6,18.516,33.125,44.190,839.50,0.0,0.576,18.192,18.158, NaN,23.710,   NaN,17.09,1014.65,87.42,17.43,21.1,24.0,6.3,6.9,354.8,357.5,6.1,6.7,NaN, NaN,21.1,333.0,323.0,1120435355,1120435355,1,0.8,000154,000155,333.1,30.849465,-121.594030,0.73,NaN,NaN,18.520, NaN,NaN,NaN, NaN, NaN
20050704,000304,444889,30.849676,-121.594128,17.5,18.518,33.123,44.190,840.05,0.0,0.576,18.191,18.157, NaN,23.708,   NaN,17.12,1014.67,87.51,17.42,20.9,22.3,6.9,7.4,355.2,356.4,6.5,7.1,NaN, NaN,20.2,64.5,4.3,1120435385,1120435385,1,0.7,000184,000185,332.0,30.849533,-121.594090,0.74,NaN,NaN,18.522, NaN,NaN,NaN, NaN, NaN
20050704,000334,444919,30.849746,-121.594188,17.7,18.516,33.124,44.189,842.99,0.0,0.576,18.192,18.158, NaN,23.709,   NaN,17.19,1014.56,87.76,17.47,22.4,21.9,6.8,7.3,355.1,354.3,6.5,7.0,NaN, NaN,20.6,325.7,293.4,1120435415,1120435415,1,0.2,000214,000215,329.6,30.849598,-121.594140,0.65,NaN,NaN,18.520, NaN,NaN,NaN, NaN, NaN
20050704,000404,444950,30.849803,-121.594251,17.5,18.518,33.122,44.189,844.66,0.0,0.576,18.192,18.158, NaN,23.707,   NaN,17.24,1014.59,87.83,17.53,29.6,28.4,6.6,7.1,0.6,359.2,6.4,6.9,NaN, NaN,20.6,298.1,334.4,1120435445,1120435444,1,0.7,000243,000244,326.8,30.849668,-121.594203,0.70,NaN,NaN,18.522, NaN,NaN,NaN, NaN, NaN
20050704,000434,444980,30.849850,-121.594330,17.4,18.518,33.123,44.190,845.08,0.0,0.576,18.192,18.158, NaN,23.708,   NaN,17.18,1014.66,87.80,17.51,31.7,32.1,6.9,7.5,0.7,1.0,6.7,7.3,NaN, NaN,20.1,284.2,322.3,1120435475,1120435475,1,0.7,000274,000275,324.5,30.849720,-121.594281,0.63,NaN,NaN,18.522, NaN,NaN,NaN, NaN, NaN
20050704,000504,445010,30.849893,-121.594421,17.6,18.519,33.124,44.192,848.67,0.0,0.576,18.193,18.158, NaN,23.708,   NaN,17.19,1014.65,87.82,17.52,26.0,28.5,6.5,7.3,354.8,357.0,6.4,7.1,NaN, NaN,20.0,279.2,277.6,1120435505,1120435505,1,0.8,000304,000305,327.6,30.849753,-121.594370,0.68,NaN,NaN,18.523, NaN,NaN,NaN, NaN, NaN
20050704,000533,445039,30.849943,-121.594478,17.5,18.521,33.122,44.191,852.64,0.0,0.576,18.195,18.158, NaN,23.706,   NaN,17.09,1014.67,87.78,17.43,25.5,28.9,6.4,7.0,356.3,359.5,6.3,6.9,NaN, NaN,20.0,248.7,279.4,1120435535,1120435534,1,0.9,000333,000334,331.3,30.849796,-121.594448,0.55,NaN,NaN,18.525, NaN,NaN,NaN, NaN, NaN
20050704,000604,445069,30.850008,-121.594556,17.6,18.523,33.123,44.195,859.94,0.0,0.576,18.200,18.160, NaN,23.707,   NaN,17.09,1014.68,87.74,17.41,24.4,26.0,6.5,7.0,358.4,359.8,6.3,6.8,NaN, NaN,19.7,339.0,339.2,1120435565,1120435565,1,0.8,000364,000365,334.2,30.849855,-121.594526,0.46,NaN,NaN,18.527, NaN,NaN,NaN, NaN, NaN
20050704,000634,445099,30.850070,-121.594615,17.7,18.521,33.125,44.195,863.59,0.0,0.576,18.200,18.161, NaN,23.709,   NaN,17.05,1014.68,87.70,17.34,15.5,17.0,6.2,6.7,351.5,352.9,5.9,6.5,NaN, NaN,19.9,279.1,319.4,1120435596,1120435595,1,0.3,000394,000395,335.0,30.849920,-121.594583,0.74,NaN,NaN,18.525, NaN,NaN,NaN, NaN, NaN
20050704,000704,445130,30.850146,-121.594653,17.4,18.522,33.125,44.196,868.91,0.0,0.576,18.201,18.161, NaN,23.709,   NaN,17.10,1014.67,87.57,17.37,14.3,17.6,6.2,6.7,349.7,353.1,5.9,6.4,NaN, NaN,20.2,15.2,318.9,1120435625,1120435625,1,0.7,000424,000425,331.9,30.850001,-121.594620,0.58,NaN,NaN,18.526, NaN,NaN,NaN, NaN, NaN
20050704,000735,445160,30.850216,-121.594708,17.6,18.522,33.123,44.194,875.15,0.0,0.576,18.200,18.161, NaN,23.707,   NaN,17.16,1014.63,87.78,17.40,21.4,23.0,6.3,6.7,353.1,354.7,6.0,6.4,NaN, NaN,19.6,36.3,350.6,1120435656,1120435655,1,0.8,000454,000455,327.3,30.850076,-121.594665,0.77,NaN,NaN,18.526, NaN,NaN,NaN, NaN, NaN
20050704,000804,445190,30.850296,-121.594773,17.7,18.524,33.122,44.194,873.53,0.0,0.576,18.199,18.161, NaN,23.706,   NaN,17.16,1014.61,87.42,17.45,23.1,25.0,6.6,7.1,352.2,354.0,6.3,6.9,NaN, NaN,19.2,32.2,360.0,1120435685,1120435685,1,0.8,000484,000485,326.0,30.850155,-121.594721,0.78,NaN,NaN,18.528, NaN,NaN,NaN, NaN, NaN
20050704,000834,445219,30.850356,-121.594855,17.5,18.524,33.125,44.197,868.91,0.0,0.576,18.196,18.162, NaN,23.708,   NaN,17.04,1014.72,87.21,17.38,19.5,22.4,6.4,7.0,347.5,350.1,6.1,6.8,NaN, NaN,19.7,291.2,329.2,1120435715,1120435715,1,0.9,000514,000515,326.8,30.850225,-121.594803,0.80,NaN,NaN,18.528, NaN,NaN,NaN, NaN, NaN
20050704,000905,445251,30.850445,-121.594923,17.5,18.522,33.123,44.194,868.47,0.0,0.576,18.201,18.162, NaN,23.707,   NaN,17.10,1014.62,87.56,17.38,14.6,16.5,6.2,7.0,344.4,346.0,5.9,6.7,NaN, NaN,18.7,337.9,302.5,1120435746,1120435746,1,0.9,000545,000546,330.4,30.850296,-121.594891,0.70,NaN,NaN,18.526, NaN,NaN,NaN, NaN, NaN
20050704,000934,445280,30.850506,-121.595001,17.6,18.522,33.125,44.195,871.77,0.0,0.576,18.201,18.163, NaN,23.708,   NaN,17.10,1014.67,87.11,17.39,7.8,10.3,6.9,7.3,339.3,341.8,6.6,6.9,NaN, NaN,19.2,265.6,298.9,1120435775,1120435775,1,1.1,000574,000575,331.6,30.850368,-121.594968,0.70,NaN,NaN,18.526, NaN,NaN,NaN, NaN, NaN
20050704,001004,445310,30.850583,-121.595048,17.6,18.522,33.123,44.194,878.95,0.0,0.576,18.201,18.163, NaN,23.707,   NaN,17.03,1014.63,87.10,17.35,7.5,10.3,7.0,6.9,340.0,342.9,6.7,6.7,NaN, NaN,19.3,280.3,306.5,1120435805,1120435805,1,0.9,000604,000605,332.8,30.850446,-121.595018,0.79,NaN,NaN,18.526, NaN,NaN,NaN, NaN, NaN
20050704,001034,445340,30.850666,-121.595106,17.6,18.524,33.124,44.196,888.13,0.0,0.576,18.201,18.164, NaN,23.707,   NaN,17.11,1014.64,87.24,17.36,8.5,11.8,7.3,7.4,341.0,344.5,6.9,7.1,NaN, NaN,20.0,27.0,306.5,1120435835,1120435835,1,0.8,000634,000635,330.8,30.850526,-121.595068,0.73,NaN,NaN,18.528, NaN,NaN,NaN, NaN, NaN
20050704,001104,445370,30.850753,-121.595153,17.8,18.524,33.123,44.196,901.83,0.0,0.576,18.200,18.165, NaN,23.706,   NaN,17.11,1014.64,87.05,17.39,7.8,11.3,7.4,7.7,338.8,342.5,7.0,7.4,NaN, NaN,19.4,17.0,349.6,1120435865,1120435865,1,1.0,000664,000665,329.3,30.850615,-121.595113,0.75,NaN,NaN,18.528, NaN,NaN,NaN, NaN, NaN
20050704,001134,445399,30.850820,-121.595210,17.6,18.528,33.122,44.198,917.05,0.0,0.595,18.203,18.165, NaN,23.705,   NaN,17.15,1014.59,87.18,17.41,9.2,7.7,7.4,7.9,339.8,338.4,7.1,7.5,NaN, NaN,19.4,275.9,290.4,1120435895,1120435895,1,0.4,000694,000695,329.5,30.850685,-121.595168,0.84,NaN,NaN,18.532, NaN,NaN,NaN, NaN, NaN
20050704,001204,445429,30.850915,-121.595250,17.6,18.527,33.124,44.200,934.31,0.0,0.595,18.203,18.165, NaN,23.707,   NaN,17.06,1014.62,86.76,17.39,4.6,7.2,7.6,7.8,334.0,337.2,7.4,7.4,NaN, NaN,19.3,36.7,3.8,1120435925,1120435925,1,0.7,000724,000725,329.3,30.850773,-121.595210,0.80,NaN,NaN,18.531, NaN,NaN,NaN, NaN, NaN
20050704,001234,445460,30.850990,-121.595311,17.6,18.522,33.126,44.197,948.42,0.0,0.576,18.200,18.165, NaN,23.709,   NaN,17.04,1014.52,86.83,17.33,7.6,8.8,7.4,7.6,336.8,338.2,7.1,7.3,NaN, NaN,19.5,63.8,347.4,1120435955,1120435955,1,0.6,000754,000755,328.3,30.850855,-121.595265,0.78,NaN,NaN,18.526, NaN,NaN,NaN, NaN, NaN
20050704,001304,445490,30.851063,-121.595360,17.6,18.523,33.123,44.195,956.07,0.0,0.576,18.201,18.163, NaN,23.707,   NaN,17.08,1014.53,86.92,17.38,6.5,11.3,7.5,7.5,334.9,339.8,7.2,7.3,NaN, NaN,18.6,253.8,303.0,1120435985,1120435985,1,1.1,000784,000785,326.6,30.850931,-121.595311,0.72,NaN,NaN,18.527, NaN,NaN,NaN, NaN, NaN
20050704,001334,445520,30.851131,-121.595405,17.6,18.527,33.122,44.196,949.76,0.0,0.576,18.201,18.165, NaN,23.704,   NaN,17.11,1014.53,86.81,17.40,5.4,9.5,7.8,7.9,333.4,337.6,7.6,7.7,NaN, NaN,19.7,40.5,13.5,1120436015,1120436015,1,0.9,000814,000815,328.1,30.851001,-121.595361,0.74,NaN,NaN,18.531, NaN,NaN,NaN, NaN, NaN
20050704,001404,445550,30.851201,-121.595451,17.7,18.523,33.125,44.197,925.19,0.0,0.576,18.202,18.165, NaN,23.708,   NaN,16.99,1014.54,86.58,17.32,5.9,8.9,7.7,7.7,335.2,338.4,7.4,7.4,NaN, NaN,19.0,50.4,23.1,1120436045,1120436045,1,0.6,000844,000845,331.5,30.851070,-121.595420,0.64,NaN,NaN,18.527, NaN,NaN,NaN, NaN, NaN
20050704,001434,445579,30.851273,-121.595493,17.6,18.524,33.121,44.194,903.21,0.0,0.576,18.202,18.165, NaN,23.705,   NaN,17.05,1014.60,86.80,17.35,7.3,11.7,7.6,7.8,337.7,342.2,7.5,7.6,NaN, NaN,19.4,310.8,350.5,1120436075,1120436075,1,0.6,000874,000875,331.5,30.851143,-121.595465,0.72,NaN,NaN,18.528, NaN,NaN,NaN, NaN, NaN
20050704,001504,445609,30.851343,-121.595536,17.7,18.524,33.123,44.195,893.45,0.0,0.576,18.200,18.165, NaN,23.706,   NaN,17.01,1014.57,86.49,17.30,5.5,11.4,7.4,7.4,335.7,341.8,7.1,7.1,NaN, NaN,18.8,36.3,301.9,1120436105,1120436105,1,0.8,000904,000905,329.3,30.851211,-121.595503,0.64,NaN,NaN,18.528, NaN,NaN,NaN, NaN, NaN
20050704,001534,445640,30.851423,-121.595590,17.5,18.524,33.125,44.198,898.34,0.0,0.576,18.200,18.165, NaN,23.708,   NaN,17.01,1014.61,86.60,17.30,2.3,8.6,6.9,7.0,330.6,337.1,6.6,6.7,NaN, NaN,18.7,316.5,323.7,1120436135,1120436135,1,1.0,000934,000935,328.0,30.851290,-121.595550,0.70,NaN,NaN,18.528, NaN,NaN,NaN, NaN, NaN
20050704,001605,445670,30.851500,-121.595630,17.5,18.524,33.124,44.197,917.94,0.0,0.576,18.200,18.165, NaN,23.707,   NaN,17.07,1014.65,86.74,17.34,3.1,6.2,6.7,7.1,332.3,335.5,6.4,6.8,NaN, NaN,19.1,318.3,351.3,1120436166,1120436165,1,1.0,000964,000965,329.8,30.851363,-121.595595,0.70,NaN,NaN,18.528, NaN,NaN,NaN, NaN, NaN
20050704,001634,445700,30.851570,-121.595673,17.8,18.523,33.124,44.196,929.83,0.0,0.576,18.201,18.165, NaN,23.707,   NaN,17.04,1014.53,86.43,17.35,1.0,3.8,6.8,7.1,330.8,333.7,6.5,6.8,NaN, NaN,19.5,24.0,11.8,1120436195,1120436195,1,0.9,000994,000995,330.5,30.851431,-121.595641,0.82,NaN,NaN,18.527, NaN,NaN,NaN, NaN, NaN
20050704,001704,445729,30.851651,-121.595723,17.6,18.527,33.122,44.197,894.28,0.0,0.576,18.201,18.165, NaN,23.705,   NaN,17.03,1014.61,86.60,17.34,3.1,2.4,6.8,6.9,333.8,333.2,6.5,6.6,NaN, NaN,19.4,290.9,344.5,1120436225,1120436225,1,0.7,001024,001025,330.1,30.851511,-121.595686,0.87,NaN,NaN,18.531, NaN,NaN,NaN, NaN, NaN
20050704,001735,445761,30.851736,-121.595773,17.9,18.527,33.125,44.200,866.80,0.0,0.576,18.203,18.165, NaN,23.707,   NaN,17.03,1014.53,86.60,17.33,3.4,2.5,6.6,6.7,335.2,334.4,6.2,6.3,NaN, NaN,18.4,342.5,324.8,1120436256,1120436255,1,0.8,001054,001055,331.0,30.851593,-121.595738,0.79,NaN,NaN,18.531, NaN,NaN,NaN, NaN, NaN
20050704,001804,445790,30.851825,-121.595810,17.7,18.526,33.124,44.198,839.80,0.0,0.576,18.203,18.165, NaN,23.706,   NaN,17.07,1014.53,86.62,17.36,7.6,3.9,6.5,6.6,337.9,334.4,6.2,6.2,NaN, NaN,19.1,54.6,12.6,1120436285,1120436285,1,0.8,001084,001085,330.6,30.851680,-121.595781,0.87,NaN,NaN,18.530, NaN,NaN,NaN, NaN, NaN
20050704,001834,445820,30.851905,-121.595870,17.7,18.527,33.123,44.198,816.14,0.0,0.576,18.204,18.165, NaN,23.705,   NaN,17.03,1014.55,86.58,17.34,2.6,5.6,6.5,6.5,333.1,336.4,6.1,6.1,NaN, NaN,19.0,356.4,350.8,1120436315,1120436315,1,0.7,001114,001115,330.0,30.851758,-121.595828,0.77,NaN,NaN,18.531, NaN,NaN,NaN, NaN, NaN
20050704,001904,445850,30.851988,-121.595920,17.8,18.530,33.124,44.202,796.70,0.0,0.576,18.205,18.165, NaN,23.706,   NaN,16.99,1014.52,86.45,17.29,1.8,5.9,6.2,6.4,331.2,335.6,5.8,6.0,NaN, NaN,19.4,11.4,3.4,1120436345,1120436345,1,0.4,001144,001145,328.3,30.851843,-121.595876,0.88,NaN,NaN,18.534, NaN,NaN,NaN, NaN, NaN
20050704,001934,445880,30.852076,-121.595971,17.6,18.527,33.125,44.200,777.39,0.0,0.595,18.202,18.165, NaN,23.707,   NaN,16.99,1014.51,86.53,17.29,4.4,5.6,6.1,6.3,332.4,333.7,5.7,6.0,NaN, NaN,19.2,318.4,308.7,1120436376,1120436376,1,0.7,001174,001176,327.5,30.851936,-121.595931,0.64,NaN,NaN,18.531, NaN,NaN,NaN, NaN, NaN
20050704,002004,445909,30.852168,-121.596028,17.7,18.529,33.123,44.200,761.38,0.0,0.576,18.204,18.165, NaN,23.705,   NaN,17.03,1014.47,86.67,17.29,0.4,6.1,5.7,5.9,328.8,334.3,5.4,5.5,NaN, NaN,18.5,318.4,303.4,1120436405,1120436405,1,0.8,001204,001205,328.3,30.852028,-121.595990,0.88,NaN,NaN,18.533, NaN,NaN,NaN, NaN, NaN
20050704,002035,445941,30.852263,-121.596080,17.6,18.527,33.124,44.200,747.89,0.0,0.576,18.200,18.165, NaN,23.707,   NaN,17.15,1014.52,86.99,17.40,2.3,2.7,5.3,5.4,332.5,332.9,5.0,5.0,NaN, NaN,19.1,317.5,355.7,1120436436,1120436436,1,0.8,001235,001236,330.5,30.852125,-121.596048,0.94,NaN,NaN,18.531, NaN,NaN,NaN, NaN, NaN
20050704,002104,445970,30.852358,-121.596125,17.4,18.524,33.126,44.199,739.17,0.0,0.576,18.199,18.164, NaN,23.708,   NaN,17.13,1014.62,86.63,17.42,355.1,357.7,5.9,5.8,326.9,329.4,5.5,5.3,NaN, NaN,19.1,77.3,15.4,1120436465,1120436465,1,0.9,001264,001265,332.5,30.852220,-121.596091,0.99,NaN,NaN,18.528, NaN,NaN,NaN, NaN, NaN
20050704,002134,446000,30.852453,-121.596166,17.5,18.524,33.124,44.197,733.83,0.0,0.576,18.199,18.165, NaN,23.707,   NaN,17.13,1014.55,86.91,17.39,354.0,357.1,6.1,6.0,326.3,329.6,5.8,5.6,NaN, NaN,19.0,271.1,312.9,1120436495,1120436495,1,0.6,001294,001295,332.1,30.852313,-121.596131,0.78,NaN,NaN,18.528, NaN,NaN,NaN, NaN, NaN
20050704,002204,446030,30.852558,-121.596188,17.6,18.523,33.126,44.198,732.07,0.0,0.576,18.198,18.163, NaN,23.709,   NaN,17.11,1014.57,86.95,17.40,0.7,3.4,6.1,6.2,331.8,334.7,5.8,5.9,NaN, NaN,19.6,39.9,6.0,1120436526,1120436525,1,0.8,001324,001325,329.5,30.852418,-121.596148,0.81,NaN,NaN,18.527, NaN,NaN,NaN, NaN, NaN
20050704,002234,446060,30.852666,-121.596238,17.6,18.522,33.125,44.196,731.31,0.0,0.576,18.197,18.161, NaN,23.709,   NaN,17.21,1014.43,87.44,17.45,5.8,7.3,6.3,6.5,334.2,335.8,5.9,6.1,NaN, NaN,18.4,332.5,6.7,1120436555,1120436555,1,0.6,001354,001355,327.8,30.852518,-121.596191,0.89,NaN,NaN,18.526, NaN,NaN,NaN, NaN, NaN
20050704,002304,446089,30.852765,-121.596298,17.7,18.524,33.123,44.195,730.02,0.0,0.576,18.196,18.160, NaN,23.706,   NaN,17.13,1014.47,86.90,17.44,7.4,10.4,7.2,7.3,334.5,337.7,6.7,6.8,NaN, NaN,18.8,296.3,287.5,1120436586,1120436585,1,1.0,001384,001385,325.3,30.852626,-121.596250,0.97,NaN,NaN,18.528, NaN,NaN,NaN, NaN, NaN
20050704,002334,446120,30.852866,-121.596358,17.7,18.524,33.125,44.198,730.07,0.0,0.576,18.196,18.159, NaN,23.708,   NaN,17.13,1014.43,87.30,17.42,10.1,14.2,7.3,7.8,335.7,340.1,6.9,7.4,NaN, NaN,18.7,332.0,324.2,1120436615,1120436615,1,1.1,001414,001415,324.8,30.852728,-121.596313,0.98,NaN,NaN,18.528, NaN,NaN,NaN, NaN, NaN
20050704,002404,446150,30.852970,-121.596441,17.7,18.520,33.126,44.195,731.87,0.0,0.595,18.194,18.158, NaN,23.709,   NaN,17.14,1014.42,87.29,17.41,11.9,15.4,7.8,8.3,337.3,341.0,7.4,7.8,NaN, NaN,18.7,25.5,336.6,1120436645,1120436645,1,0.8,001444,001445,326.5,30.852833,-121.596403,1.14,NaN,NaN,18.524, NaN,NaN,NaN, NaN, NaN
20050704,002434,446180,30.853076,-121.596531,17.6,18.520,33.124,44.193,726.17,0.0,0.595,18.192,18.159, NaN,23.708,   NaN,17.08,1014.44,87.10,17.39,10.5,13.8,8.8,9.1,339.0,342.4,8.3,8.7,NaN, NaN,20.3,316.4,3.4,1120436675,1120436675,1,1.0,001474,001475,329.6,30.852935,-121.596501,1.15,NaN,NaN,18.524, NaN,NaN,NaN, NaN, NaN
20050704,002504,446210,30.853178,-121.596615,17.8,18.519,33.126,44.194,709.96,0.0,0.595,18.192,18.158, NaN,23.710,   NaN,17.08,1014.33,87.34,17.37,10.9,13.5,9.0,9.2,342.5,345.2,8.5,8.8,NaN, NaN,21.1,9.0,339.9,1120436705,1120436705,1,0.9,001504,001505,332.6,30.853043,-121.596593,0.99,NaN,NaN,18.523, NaN,NaN,NaN, NaN, NaN
20050704,002534,446239,30.853296,-121.596683,17.6,18.522,33.122,44.192,695.34,0.0,0.595,18.192,18.158, NaN,23.706,   NaN,17.11,1014.38,87.21,17.38,10.4,13.8,8.0,8.2,343.3,346.9,7.6,7.7,NaN, NaN,20.1,340.7,335.8,1120436735,1120436735,1,1.1,001534,001535,333.1,30.853156,-121.596663,0.84,NaN,NaN,18.526, NaN,NaN,NaN, NaN, NaN
20050704,002604,446269,30.853385,-121.596731,17.6,18.520,33.124,44.192,685.32,0.0,0.576,18.192,18.158, NaN,23.708,   NaN,17.00,1014.46,87.06,17.32,7.9,11.8,7.4,7.4,341.1,345.3,7.0,7.0,NaN, NaN,19.4,319.8,345.6,1120436765,1120436765,1,0.8,001564,001565,332.4,30.853243,-121.596706,0.83,NaN,NaN,18.524, NaN,NaN,NaN, NaN, NaN
20050704,002634,446300,30.853476,-121.596768,17.7,18.518,33.125,44.192,684.36,0.0,0.576,18.192,18.153, NaN,23.709,   NaN,17.06,1014.46,87.30,17.34,12.8,15.1,6.9,7.2,346.0,348.2,6.5,6.9,NaN, NaN,20.1,295.1,359.2,1120436796,1120436795,1,1.1,001594,001595,328.8,30.853343,-121.596740,0.92,NaN,NaN,18.522, NaN,NaN,NaN, NaN, NaN
20050704,002704,446330,30.853573,-121.596840,17.8,18.512,33.129,44.191,687.52,0.0,0.595,18.190,18.151, NaN,23.714,   NaN,17.18,1014.43,87.82,17.43,23.2,24.0,6.1,6.6,355.0,355.6,5.8,6.2,NaN, NaN,20.6,345.5,322.7,1120436825,1120436825,1,1.0,001624,001625,326.1,30.853440,-121.596806,1.18,NaN,NaN,18.516, NaN,NaN,NaN, NaN, NaN
20050704,002735,446360,30.853680,-121.596938,17.5,18.512,33.122,44.183,689.88,0.0,0.595,18.187,18.148, NaN,23.708,   NaN,17.25,1014.50,87.55,17.53,26.8,27.5,6.3,6.9,355.0,355.5,5.9,6.5,NaN, NaN,20.5,302.1,302.1,1120436856,1120436856,1,1.1,001655,001656,325.3,30.853548,-121.596896,0.98,NaN,NaN,18.516, NaN,NaN,NaN, NaN, NaN
20050704,002805,446391,30.853791,-121.597031,17.6,18.511,33.125,44.185,690.20,0.0,0.595,18.185,18.147, NaN,23.711,   NaN,17.11,1014.43,87.39,17.46,22.5,23.8,6.8,7.3,351.0,352.3,6.4,6.9,NaN, NaN,19.0,323.7,313.0,1120436886,1120436886,1,1.2,001685,001686,329.0,30.853656,-121.597001,1.13,NaN,NaN,18.515, NaN,NaN,NaN, NaN, NaN
20050704,002834,446419,30.853916,-121.597113,17.5,18.509,33.125,44.183,685.35,0.0,0.595,18.185,18.145, NaN,23.711,   NaN,17.05,1014.49,87.49,17.39,15.4,19.1,6.5,6.8,346.3,350.1,6.0,6.4,NaN, NaN,20.3,321.8,337.5,1120436915,1120436915,1,1.0,001714,001715,331.5,30.853783,-121.597093,1.30,NaN,NaN,18.513, NaN,NaN,NaN, NaN, NaN
20050704,002905,446451,30.854065,-121.597213,17.6,18.507,33.124,44.180,680.11,0.0,0.595,18.183,18.145, NaN,23.712,   NaN,17.01,1014.46,87.34,17.33,9.4,13.5,6.6,6.6,341.7,346.2,6.1,6.0,NaN, NaN,19.0,63.4,356.1,1120436946,1120436946,1,1.1,001745,001746,332.5,30.853930,-121.597188,1.23,NaN,NaN,18.511, NaN,NaN,NaN, NaN, NaN
20050704,002934,446480,30.854203,-121.597280,17.5,18.507,33.123,44.178,672.12,0.0,0.595,18.181,18.144, NaN,23.710,   NaN,17.04,1014.46,87.53,17.30,8.6,11.9,6.6,6.7,340.8,344.3,6.0,6.1,NaN, NaN,19.1,292.0,317.7,1120436975,1120436975,1,1.1,001774,001775,330.8,30.854078,-121.597255,1.14,NaN,NaN,18.511, NaN,NaN,NaN, NaN, NaN
20050704,003004,446510,30.854343,-121.597353,17.3,18.502,33.127,44.179,663.11,0.0,0.595,18.180,18.140, NaN,23.715,   NaN,17.15,1014.53,87.85,17.42,17.0,17.5,6.5,6.5,348.5,349.0,6.0,6.0,NaN, NaN,18.8,328.6,321.6,1120437005,1120437005,1,0.9,001804,001805,328.3,30.854216,-121.597323,1.20,NaN,NaN,18.506, NaN,NaN,NaN, NaN, NaN
20050704,003034,446540,30.854488,-121.597441,17.6,18.499,33.127,44.176,655.45,0.0,0.595,18.178,18.140, NaN,23.715,   NaN,17.24,1014.45,87.69,17.51,26.6,25.5,6.4,6.7,356.5,355.2,5.9,6.2,NaN, NaN,19.1,307.5,331.3,1120437035,1120437035,1,1.5,001834,001835,327.1,30.854351,-121.597405,1.29,NaN,NaN,18.503, NaN,NaN,NaN, NaN, NaN
20050704,003105,446571,30.854618,-121.597543,17.4,18.496,33.126,44.172,650.27,0.0,0.595,18.177,18.138, NaN,23.716,   NaN,17.15,1014.49,87.75,17.49,23.5,24.4,6.5,7.0,353.5,354.3,6.0,6.5,NaN, NaN,19.2,10.2,355.0,1120437066,1120437066,1,1.3,001865,001866,328.8,30.854481,-121.597511,1.33,NaN,NaN,18.500, NaN,NaN,NaN, NaN, NaN
20050704,003134,446599,30.854753,-121.597641,17.8,18.495,33.124,44.168,647.11,0.0,0.595,18.176,18.137, NaN,23.714,   NaN,17.16,1014.40,87.78,17.48,18.7,20.8,6.3,6.8,350.3,352.3,5.8,6.3,NaN, NaN,20.6,289.5,314.9,1120437095,1120437095,1,1.3,001894,001895,330.1,30.854623,-121.597615,1.29,NaN,NaN,18.499, NaN,NaN,NaN, NaN, NaN
20050704,003204,446630,30.854900,-121.597726,17.7,18.494,33.126,44.170,642.78,0.0,0.595,18.169,18.134, NaN,23.716,   NaN,17.14,1014.42,87.74,17.42,18.6,22.0,6.3,6.7,350.9,354.4,5.7,6.1,NaN, NaN,18.7,28.0,5.4,1120437125,1120437125,1,1.2,001924,001925,330.0,30.854765,-121.597698,1.39,NaN,NaN,18.498, NaN,NaN,NaN, NaN, NaN
20050704,003234,446660,30.855038,-121.597830,17.7,18.491,33.127,44.168,643.65,0.0,0.595,18.167,18.133, NaN,23.717,   NaN,17.14,1014.45,87.96,17.44,22.8,24.3,6.1,6.7,354.9,356.3,5.6,6.2,NaN, NaN,19.6,325.2,345.1,1120437155,1120437155,1,1.2,001954,001955,329.5,30.854911,-121.597790,1.30,NaN,NaN,18.495, NaN,NaN,NaN, NaN, NaN
20050704,003304,446690,30.855155,-121.597925,17.5,18.490,33.123,44.163,646.68,0.0,0.595,18.167,18.133, NaN,23.715,   NaN,17.18,1014.55,88.10,17.47,25.8,25.3,6.3,6.9,358.0,357.2,5.8,6.4,NaN, NaN,18.9,3.9,339.0,1120437185,1120437185,1,0.8,001984,001985,327.5,30.855023,-121.597883,0.93,NaN,NaN,18.494, NaN,NaN,NaN, NaN, NaN
20050704,003334,446720,30.855260,-121.598010,17.5,18.493,33.124,44.167,651.86,0.0,0.614,18.167,18.132, NaN,23.715,   NaN,17.18,1014.57,88.04,17.51,22.3,22.0,6.6,7.5,352.5,351.9,6.2,7.0,NaN, NaN,19.6,277.6,353.1,1120437216,1120437215,1,0.9,002014,002015,327.3,30.855131,-121.597971,1.21,NaN,NaN,18.497, NaN,NaN,NaN, NaN, NaN
20050704,003404,446749,30.855381,-121.598103,17.5,18.497,33.120,44.166,654.34,0.0,0.595,18.167,18.134, NaN,23.711,   NaN,17.15,1014.41,88.18,17.48,20.6,22.2,7.1,8.1,351.0,352.4,6.7,7.7,NaN, NaN,18.9,278.0,328.9,1120437245,1120437245,1,1.0,002044,002045,329.5,30.855253,-121.598075,1.23,NaN,NaN,18.501, NaN,NaN,NaN, NaN, NaN
20050704,003434,446779,30.855500,-121.598193,17.5,18.497,33.121,44.167,658.66,0.0,0.614,18.167,18.129, NaN,23.712,   NaN,17.23,1014.41,88.48,17.52,24.5,22.6,7.8,8.6,356.5,354.3,7.4,8.1,NaN, NaN,19.0,11.8,359.5,1120437275,1120437275,1,1.0,002074,002075,330.6,30.855373,-121.598170,1.21,NaN,NaN,18.501, NaN,NaN,NaN, NaN, NaN
20050704,003504,446810,30.855626,-121.598303,17.7,18.496,33.124,44.169,666.85,0.0,0.595,18.167,18.128, NaN,23.714,   NaN,17.07,1014.44,87.85,17.45,22.4,21.5,8.3,9.0,354.7,353.5,7.7,8.5,NaN, NaN,19.9,354.2,330.2,1120437305,1120437305,1,1.2,002104,002105,329.6,30.855500,-121.598275,1.33,NaN,NaN,18.500, NaN,NaN,NaN, NaN, NaN
20050704,003535,446840,30.855751,-121.598413,17.5,18.489,33.127,44.166,675.99,0.0,0.595,18.165,18.129, NaN,23.718,   NaN,16.91,1014.50,87.79,17.29,22.8,24.8,7.7,8.3,354.8,356.7,7.3,7.9,NaN, NaN,19.0,263.4,292.2,1120437336,1120437335,1,1.5,002134,002135,329.9,30.855625,-121.598378,1.27,NaN,NaN,18.493, NaN,NaN,NaN, NaN, NaN
20050704,003604,446870,30.855891,-121.598495,17.4,18.490,33.124,44.164,689.29,0.0,0.595,18.167,18.131, NaN,23.715,   NaN,16.97,1014.44,88.11,17.27,17.4,18.9,7.5,7.9,348.9,350.4,7.0,7.5,NaN, NaN,19.1,325.8,352.7,1120437365,1120437365,1,1.3,002164,002165,330.1,30.855756,-121.598468,1.46,NaN,NaN,18.494, NaN,NaN,NaN, NaN, NaN
20050704,003634,446900,30.856025,-121.598601,17.6,18.498,33.119,44.166,692.90,0.0,0.595,18.169,18.134, NaN,23.710,   NaN,17.01,1014.48,87.95,17.32,8.2,11.5,7.9,8.3,339.5,342.9,7.4,7.8,NaN, NaN,19.2,320.4,324.0,1120437395,1120437395,1,1.4,002194,002195,330.8,30.855898,-121.598575,1.39,NaN,NaN,18.502, NaN,NaN,NaN, NaN, NaN